Wind_Speed
6 8 8 8 8 8 8 8 8 8 7 7 6 5 4 3 3 3 3 3 4 5 6 8 9 10 12 13 14 15 14 14 14 13 12 11 9 8 8 8 8 9 9
5 5 6 6 6 6 6 6 7 7 7 7 6 6 4 3 3 2 3 3 3 4 5 6 7 9 9 10 12 14 15 15 15 14 13 13 11 9 9 8 8 9 9
4 4 4 5 5 5 5 5 5 5 6 6 6 6 5 4 3 3 3 3 3 3 4 5 6 7 7 8 9 11 13 14 15 13 13 13 11 10 9 8 8 9 9
5 4 4 4 4 4 3 3 3 4 4 5 5 5 5 5 4 3 3 3 3 3 4 4 5 5 5 6 7 8 9 11 12 13 13 13 11 10 9 8 8 8 8
6 6 5 5 4 4 3 3 2 2 2 3 3 4 4 4 4 3 3 3 2 2 3 3 4 4 5 5 6 6 7 8 9 10 10 10 10 9 9 8 8 7 7
7 8 7 7 6 6 5 5 4 3 2 2 1 2 2 2 2 3 3 2 2 2 2 2 3 3 4 4 5 5 5 5 6 6 7 8 8 8 7 6 6 6 5
8 9 9 9 9 8 8 7 6 6 5 4 3 2 2 1 1 1 1 2 2 2 2 1 2 3 3 4 4 5 5 5 5 5 5 5 5 5 5 4 4 4 3
9 10 11 11 11 11 10 10 9 8 7 7 6 5 4 3 3 2 1 1 0 0 1 1 1 1 2 3 4 4 4 5 5 4 4 4 3 2 2 2 2 1 1
10 11 13 13 13 13 13 12 12 11 10 10 9 8 7 6 5 5 4 3 3 2 1 1 0 0 1 3 3 4 4 4 4 4 5 4 3 2 2 2 1 0 0
13 13 14 15 15 15 15 15 15 14 13 13 12 11 11 9 8 8 7 6 6 5 4 3 2 1 1 2 3 3 4 4 4 5 5 5 4 3 2 2 1 1 0
15 15 15 16 16 17 17 17 17 17 16 16 15 15 14 13 11 11 10 9 9 8 7 6 4 4 3 2 2 3 3 3 4 4 5 5 5 4 3 2 2 1 1
18 18 18 18 19 19 19 20 19 19 19 19 18 18 17 16 15 14 13 12 11 10 10 9 7 6 6 5 4 3 3 3 3 4 5 5 5 5 4 3 3 2 1
22 22 22 22 22 22 21 21 22 22 23 22 22 21 20 20 18 17 16 15 14 13 12 11 11 9 8 7 6 5 5 4 4 4 5 5 5 5 5 5 4 3 3
26 26 26 26 25 24 24 24 25 26 27 27 26 25 23 22 21 19 19 18 17 16 15 14 13 12 11 9 8 8 7 6 5 5 6 6 6 6 6 6 5 5 4
30 30 30 30 30 30 29 28 28 28 29 29 28 28 28 26 25 23 22 21 20 18 17 16 15 14 13 12 11 10 9 9 7 7 7 6 6 6 6 7 6 6 6
35 35 35 35 35 35 33 33 32 32 32 31 30 29 30 29 28 27 26 24 23 21 20 20 18 17 16 15 14 13 12 11 10 9 9 8 8 8 8 8 8 8 8
39 39 40 40 40 39 38 38 37 35 35 34 32 32 31 32 31 31 29 28 26 25 23 23 21 20 19 17 16 15 14 14 13 12 12 11 10 10 9 9 9 9 9
41 42 42 43 43 43 43 42 42 41 39 37 34 34 33 32 32 31 31 30 30 28 27 25 24 22 22 20 18 18 17 16 16 15 14 14 13 13 12 11 11 11 11
42 43 44 44 45 46 46 46 46 46 44 41 39 37 37 35 33 32 32 33 33 31 29 28 27 25 23 22 21 20 19 19 18 18 17 16 16 15 15 14 14 14 14
40 41 42 44 45 45 46 46 47 48 47 45 43 42 41 39 37 34 32 34 34 33 32 31 30 29 26 24 23 22 21 21 21 21 20 19 18 18 17 18 17 17 16
37 38 39 41 43 43 44 45 46 45 45 45 44 43 42 40 39 38 35 34 34 33 33 33 32 30 29 28 26 24 23 23 23 23 23 22 21 20 20 20 19 19 19
35 36 37 38 39 40 41 43 44 45 45 45 44 44 44 42 39 38 37 34 34 34 32 32 32 32 31 30 28 26 26 25 25 25 24 24 24 23 23 23 22 22 22
32 33 33 34 35 36 37 38 39 41 42 43 43 43 43 43 40 38 36 35 34 32 31 30 30 30 31 31 29 28 28 27 27 26 25 25 26 26 25 25 24 24 24
28 28 29 29 31 32 33 34 35 36 38 39 40 41 41 41 40 40 37 35 34 34 32 30 29 29 30 31 29 29 29 29 28 26 26 26 26 26 27 27 26 26 25
23 24 25 25 26 26 27 28 29 31 34 35 37 38 38 37 37 37 36 35 34 34 33 31 30 29 30 29 29 29 28 28 28 28 28 27 27 28 29 29 28 28 27
19 19 19 19 20 21 22 23 25 26 28 30 33 34 34 34 34 33 32 33 32 32 32 31 29 29 29 29 29 30 29 28 28 29 28 28 28 28 28 28 29 29 29
Wind_Direction
122 116 112 108 105 103 99 94 90 88 87 85 86 93 104 115 129 143 161 177 191 203 207 207 212 213 221 226 229 231 234 233 236 239 245 253 261 270 283 296 307 314 321
144 134 126 122 117 113 108 102 97 94 91 88 87 90 96 106 120 135 162 177 183 193 202 207 211 214 222 227 230 233 234 233 237 241 244 248 254 263 276 287 302 313 320
175 161 150 140 134 128 121 111 104 100 98 95 92 92 93 97 106 120 145 164 176 183 190 197 204 214 223 228 231 232 235 237 240 241 243 247 251 258 267 278 293 305 312
209 196 187 176 166 156 148 137 124 114 109 104 98 94 92 93 97 105 121 136 157 175 182 191 201 209 216 222 226 229 235 238 241 240 244 247 250 256 262 274 286 301 304
234 225 220 217 211 204 198 191 178 159 139 123 111 104 98 95 95 97 103 113 125 148 172 188 199 204 210 216 218 222 229 234 233 238 242 244 248 254 261 271 282 295 304
250 244 239 235 233 231 230 227 222 217 207 193 167 138 120 108 100 96 95 96 103 117 138 168 191 198 205 206 210 215 220 219 221 228 236 245 247 249 256 267 281 295 304
257 256 252 249 246 243 242 241 240 239 239 239 238 235 223 202 156 115 104 99 98 102 111 130 169 186 197 205 211 215 214 212 213 220 227 236 242 240 246 256 284 297 306
262 262 259 256 254 251 249 248 247 247 247 248 250 251 250 248 249 252 253 236 191 115 106 99 116 170 194 209 218 221 219 214 210 210 212 213 215 218 238 252 282 308 27
267 265 265 262 259 255 252 251 250 250 251 251 252 254 254 253 254 256 259 260 258 254 252 258 52 133 191 213 222 227 223 218 217 208 209 207 209 219 227 217 199 153 64
274 269 267 265 262 258 255 253 252 252 252 253 253 254 255 254 254 256 258 259 259 258 256 256 260 259 241 230 232 233 226 219 214 205 212 210 212 218 212 194 195 193 124
278 274 270 264 262 260 257 255 253 252 253 253 254 254 255 255 255 256 258 257 258 258 258 257 254 252 252 250 247 241 231 220 210 206 216 213 216 220 217 205 197 196 178
278 275 273 269 263 260 257 256 254 252 253 254 254 255 255 254 254 256 257 257 257 258 259 258 255 251 250 251 252 248 238 224 212 215 222 219 218 221 222 216 213 205 199
276 276 274 272 269 266 261 257 255 255 255 254 255 254 255 254 252 251 255 256 256 257 258 258 256 253 251 251 252 246 239 229 220 221 225 221 220 221 223 223 223 219 220
272 272 271 273 271 269 268 265 258 258 258 256 255 255 254 254 253 250 251 254 255 255 256 257 258 254 251 249 250 247 239 232 225 225 228 225 226 226 227 230 232 231 233
270 269 268 268 268 269 267 267 264 263 262 261 259 256 254 253 252 251 251 252 252 253 254 255 256 253 251 248 247 247 243 238 233 232 234 230 230 233 235 236 238 239 239
270 269 268 268 267 268 269 268 267 264 262 264 261 260 256 254 254 252 253 252 251 251 251 252 253 252 250 249 247 246 246 243 239 238 241 237 235 237 240 240 241 243 243
272 270 268 268 268 268 268 269 268 268 266 265 264 265 262 255 254 253 251 249 249 250 250 250 250 250 250 249 248 245 245 245 242 239 242 241 239 239 242 244 245 247 249
273 272 270 270 269 268 268 268 269 269 269 268 268 269 269 264 258 258 253 250 249 249 251 250 248 250 250 248 247 245 244 244 244 242 243 245 244 243 243 246 248 250 252
275 274 272 271 270 269 268 268 269 270 270 270 269 269 268 267 265 262 257 253 251 250 250 250 246 247 248 248 248 246 243 243 244 245 246 246 246 247 246 247 249 251 254
279 277 275 273 271 271 270 269 269 269 269 268 268 267 267 266 266 265 262 258 256 254 251 249 246 245 246 247 248 248 245 244 245 246 247 247 246 247 249 249 250 252 254
282 279 277 275 273 271 270 269 268 268 268 267 265 264 264 266 266 265 264 263 260 258 256 252 247 245 245 247 248 247 245 244 245 247 248 248 248 248 249 251 252 253 255
284 282 279 277 274 273 272 271 269 268 267 266 264 262 263 263 263 263 264 264 262 260 259 257 251 246 246 246 245 245 243 244 245 246 247 248 249 250 249 250 252 254 256
289 286 282 278 276 274 272 270 268 266 265 263 262 261 261 262 261 262 262 263 260 258 257 256 252 248 246 245 243 243 243 243 243 244 247 249 250 250 250 250 250 252 254
295 292 288 284 280 276 273 270 268 266 265 262 260 259 258 260 259 259 260 261 259 256 255 252 251 250 249 247 244 243 244 244 242 243 245 248 250 251 250 252 252 252 253
302 298 295 291 286 280 276 272 270 266 264 261 259 257 256 256 256 256 257 258 258 256 254 251 249 249 248 247 248 246 244 242 240 242 244 246 249 251 252 253 254 254 253
312 310 307 302 296 288 281 277 273 269 265 261 257 254 253 253 253 252 252 252 252 251 251 247 247 247 249 246 247 247 246 244 242 241 243 246 247 250 252 253 255 256 255
Height
5915 5914 5914 5914 5914 5914 5913 5913 5912 5911 5911 5910 5909 5909 5909 5908 5908 5908 5908 5908 5909 5909 5909 5910 5911 5912 5913 5914 5915 5916 5916 5917 5918 5919 5920 5921 5921 5921 5922 5921 5921 5920 5920
5916 5916 5916 5915 5915 5915 5915 5914 5914 5913 5912 5911 5911 5910 5910 5909 5909 5909 5909 5909 5909 5909 5909 5910 5910 5911 5912 5913 5913 5914 5915 5916 5917 5918 5919 5920 5920 5920 5921 5921 5920 5920 5920
5917 5917 5917 5916 5916 5916 5916 5915 5915 5914 5913 5913 5912 5912 5911 5910 5910 5910 5909 5909 5909 5909 5909 5910 5910 5911 5911 5912 5912 5913 5913 5914 5915 5916 5917 5918 5919 5919 5920 5920 5920 5919 5919
5917 5917 5917 5917 5917 5917 5916 5916 5916 5915 5915 5914 5913 5913 5912 5912 5911 5911 5910 5910 5910 5910 5910 5910 5910 5910 5911 5911 5911 5912 5912 5913 5914 5915 5915 5916 5917 5918 5919 5919 5919 5919 5918
5917 5917 5917 5917 5917 5917 5917 5916 5916 5916 5915 5915 5914 5914 5913 5913 5912 5912 5911 5910 5910 5910 5910 5910 5910 5910 5910 5911 5911 5911 5912 5912 5913 5914 5914 5915 5916 5917 5917 5918 5918 5918 5917
5917 5917 5917 5916 5916 5916 5916 5916 5916 5916 5916 5915 5915 5914 5914 5913 5913 5912 5912 5911 5911 5910 5910 5910 5910 5910 5910 5910 5911 5911 5911 5912 5912 5913 5913 5914 5915 5915 5916 5917 5917 5917 5917
5916 5916 5916 5916 5916 5915 5915 5915 5915 5915 5915 5915 5915 5914 5914 5914 5913 5913 5912 5912 5911 5911 5910 5910 5910 5910 5910 5910 5910 5910 5911 5911 5911 5912 5913 5913 5914 5914 5915 5916 5916 5916 5916
5915 5915 5915 5914 5914 5914 5914 5914 5914 5914 5914 5914 5914 5914 5914 5913 5913 5913 5912 5912 5911 5911 5911 5910 5910 5910 5910 5910 5910 5910 5910 5910 5911 5912 5912 5913 5913 5914 5915 5915 5916 5916 5916
5914 5913 5913 5913 5912 5912 5913 5913 5913 5913 5913 5913 5913 5913 5913 5913 5912 5912 5912 5911 5911 5911 5911 5910 5910 5910 5910 5909 5909 5909 5910 5910 5910 5911 5912 5912 5913 5914 5914 5915 5915 5916 5916
5912 5911 5911 5910 5910 5910 5910 5910 5910 5910 5911 5911 5911 5911 5911 5911 5911 5911 5911 5911 5910 5910 5910 5910 5910 5910 5910 5909 5909 5909 5909 5910 5910 5911 5911 5912 5913 5914 5914 5915 5915 5916 5916
5909 5909 5908 5908 5908 5907 5907 5907 5907 5908 5908 5908 5908 5909 5909 5909 5910 5910 5909 5909 5909 5909 5909 5909 5909 5909 5909 5909 5909 5909 5909 5910 5910 5911 5911 5912 5913 5913 5914 5915 5915 5915 5916
5906 5905 5905 5904 5904 5903 5903 5903 5903 5904 5904 5904 5905 5905 5906 5907 5907 5907 5907 5907 5907 5908 5908 5908 5908 5908 5908 5908 5908 5908 5909 5909 5910 5910 5910 5911 5912 5913 5913 5914 5915 5915 5916
5902 5901 5900 5899 5898 5898 5898 5898 5898 5899 5900 5900 5900 5901 5902 5902 5903 5904 5904 5905 5905 5905 5905 5906 5906 5906 5907 5907 5907 5908 5908 5909 5909 5909 5910 5911 5911 5912 5913 5913 5914 5915 5915
5898 5897 5896 5895 5894 5893 5893 5893 5893 5894 5894 5895 5895 5896 5897 5898 5899 5900 5901 5901 5902 5902 5903 5903 5904 5904 5905 5905 5906 5906 5907 5907 5908 5908 5909 5910 5910 5911 5912 5913 5913 5914 5915
5892 5891 5890 5889 5889 5888 5888 5888 5887 5888 5888 5889 5889 5890 5891 5892 5894 5895 5896 5898 5898 5899 5900 5900 5901 5902 5902 5903 5904 5904 5905 5906 5907 5907 5908 5908 5909 5910 5911 5912 5912 5913 5914
5884 5884 5883 5882 5882 5882 5881 5881 5881 5881 5881 5882 5883 5883 5884 5886 5888 5889 5891 5892 5894 5895 5896 5896 5897 5898 5899 5900 5901 5902 5903 5904 5905 5906 5906 5907 5908 5908 5909 5910 5911 5912 5913
5876 5875 5874 5874 5874 5874 5874 5874 5874 5874 5874 5874 5875 5875 5875 5877 5880 5882 5884 5886 5888 5889 5891 5892 5893 5894 5895 5897 5898 5898 5900 5901 5902 5904 5904 5905 5906 5907 5907 5908 5910 5911 5912
5866 5865 5865 5865 5865 5865 5865 5865 5865 5866 5867 5867 5868 5869 5868 5869 5873 5875 5877 5879 5881 5883 5885 5887 5889 5890 5891 5892 5894 5895 5896 5897 5899 5900 5901 5902 5903 5904 5905 5906 5908 5909 5910
5856 5855 5855 5854 5854 5854 5855 5855 5856 5856 5858 5859 5861 5862 5863 5863 5865 5868 5870 5872 5874 5877 5879 5881 5883 5885 5886 5888 5889 5891 5892 5893 5895 5896 5898 5899 5901 5901 5903 5904 5905 5906 5907
5846 5845 5844 5844 5843 5843 5844 5845 5846 5847 5848 5850 5852 5854 5855 5857 5858 5861 5863 5865 5866 5869 5872 5874 5876 5879 5881 5882 5884 5886 5887 5889 5890 5892 5893 5895 5897 5898 5899 5900 5902 5903 5904
5837 5835 5834 5833 5832 5833 5833 5834 5835 5836 5838 5840 5842 5844 5846 5848 5850 5853 5855 5857 5859 5861 5864 5866 5869 5872 5874 5876 5879 5880 5882 5884 5885 5887 5888 5890 5892 5894 5895 5896 5898 5899 5901
5827 5825 5824 5822 5822 5822 5822 5822 5823 5824 5826 5828 5831 5833 5836 5839 5841 5844 5847 5849 5851 5853 5856 5858 5861 5864 5867 5869 5872 5874 5876 5878 5880 5881 5883 5885 5887 5889 5890 5892 5894 5895 5896
5818 5816 5814 5813 5812 5812 5812 5812 5812 5813 5815 5817 5820 5822 5826 5829 5832 5835 5838 5841 5844 5846 5848 5851 5853 5856 5859 5862 5865 5867 5869 5871 5873 5876 5878 5879 5881 5883 5885 5886 5888 5890 5892
5811 5808 5806 5804 5803 5802 5801 5801 5802 5803 5804 5806 5809 5812 5815 5818 5822 5826 5829 5832 5835 5838 5841 5843 5846 5849 5852 5854 5857 5859 5862 5864 5867 5870 5872 5874 5875 5877 5879 5880 5882 5884 5886
5804 5801 5799 5797 5795 5793 5793 5792 5792 5793 5794 5796 5798 5801 5805 5808 5812 5815 5819 5823 5826 5829 5832 5835 5838 5841 5844 5847 5849 5852 5854 5857 5859 5862 5865 5867 5869 5871 5873 5874 5876 5878 5879
5800 5796 5794 5791 5789 5786 5785 5784 5784 5784 5785 5786 5789 5791 5795 5798 5802 5806 5810 5813 5817 5820 5823 5827 5829 5833 5836 5839 5841 5844 5847 5849 5852 5854 5857 5859 5862 5864 5866 5868 5869 5871 5872